ARABSAT-6A

Last updated on Tue Oct 08 2024 00:02:41 GMT+0000 (Coordinated Universal Time)

1 44186U 19021A 24280.69103671 .00000165 00000+0 00000+0 0 9995 2 44186 0.0534 9.8647 0007772 232.7742 52.5025 1.00274912 19950
UTC large
Height (km)
Speed (km/s)
/
Latitude / Longitude
Inclination (degrees)
Orbital Period (minutes)
Azimuth
Elevation
Range (km)
Doppler Factor

Next 0 passes for location: London (51.5072 / 0.1276)

Sorry there are no passes over London.